This is the latest recevied weather packets stored in our database for station/object EA1IDU-11. If no packets are shown the sender has not sent any weather packets the latest 10 day(s).
| Time | Temp. | Humidity | Pressure | Rain* | Wind** | Luminosity | Snow |
|---|---|---|---|---|---|---|---|
| 1777773465 | 12.78° C | 57% | 1022.6 hPa | - | - | - | - |
| 1777772565 | 12.22° C | 57% | 1022.7 hPa | - | - | - | - |
| 1777771665 | 12.22° C | 57% | 1022.8 hPa | - | - | - | - |
| 1777770764 | 12.22° C | 57% | 1022.9 hPa | - | - | - | - |
| 1777769864 | 12.22° C | 57% | 1023.1 hPa | - | - | - | - |
| 1777768964 | 12.22° C | 57% | 1023.2 hPa | - | - | - | - |
| 1777768064 | 12.22° C | 57% | 1023.4 hPa | - | - | - | - |
| 1777767164 | 12.22° C | 56% | 1023.3 hPa | - | - | - | - |
| 1777766264 | 12.78° C | 56% | 1023.4 hPa | - | - | - | - |
| 1777765364 | 12.78° C | 56% | 1023.5 hPa | - | - | - | - |
| 1777764464 | 12.78° C | 56% | 1023.4 hPa | - | - | - | - |
| 1777763563 | 13.33° C | 56% | 1023.5 hPa | - | - | - | - |
| 1777762663 | 13.33° C | 56% | 1023.4 hPa | - | - | - | - |
| 1777761763 | 13.89° C | 56% | 1023.4 hPa | - | - | - | - |
| 1777760863 | 13.89° C | 56% | 1023.3 hPa | - | - | - | - |
| 1777759963 | 13.89° C | 56% | 1023.3 hPa | - | - | - | - |
| 1777759063 | 13.89° C | 56% | 1023.3 hPa | - | - | - | - |
| 1777758163 | 14.44° C | 56% | 1023.2 hPa | - | - | - | - |
| 1777757263 | 14.44° C | 55% | 1023.4 hPa | - | - | - | - |
| 1777756363 | 14.44° C | 55% | 1023.5 hPa | - | - | - | - |
| 1777755463 | 14.44° C | 55% | 1023.4 hPa | - | - | - | - |
| 1777754562 | 14.44° C | 55% | 1023.5 hPa | - | - | - | - |
| 1777753662 | 14.44° C | 54% | 1023.3 hPa | - | - | - | - |
| 1777752762 | 14.44° C | 54% | 1023.1 hPa | - | - | - | - |
| 1777751862 | 15° C | 54% | 1023 hPa | - | - | - | - |
* Rain since midnight (hover to see other rain measurements)
** Current wind speed in m/s (hover to see current wind gust speed)